EW2974 Weather Reports


time (UTC)temp
F
wind
direction
speed
knots
gust
knots
rain 1hr
in
rain 24hr
in
rain mn
in
humidity
%
barometer
mb
20260508035905 40 250 0.0 0.0 0.00 0.00 0.00 80 1012.2
20260508035404 40 250 0.0 0.0 0.00 0.00 0.00 79 1012.2
20260508034904 40 250 0.0 0.0 0.00 0.00 0.00 79 1012.1
20260508033905 40 250 0.0 0.0 0.00 0.00 0.00 78 1012.0
20260508033404 40 250 0.0 0.0 0.00 0.00 0.00 78 1012.1
20260508032904 41 250 0.0 0.0 0.00 0.00 0.00 77 1012.0
20260508032404 41 250 0.0 0.0 0.00 0.00 0.00 77 1012.0
20260508031905 41 250 0.0 0.0 0.00 0.00 0.00 75 1012.0
20260508031404 41 250 0.0 0.0 0.00 0.00 0.00 76 1012.0
20260508030905 41 250 0.0 0.0 0.00 0.00 0.00 74 1012.0
20260508030405 41 250 0.0 0.0 0.00 0.00 0.00 75 1012.0
20260508025904 42 250 0.0 0.0 0.00 0.00 0.00 73 1012.0
20260508025407 42 250 0.0 0.0 0.00 0.00 0.00 73 1012.1
20260508024404 42 250 0.0 0.0 0.00 0.00 0.00 72 1012.1
20260508023904 42 250 0.0 0.0 0.00 0.00 0.00 72 1012.1
20260508023405 43 250 0.0 0.0 0.00 0.00 0.00 71 1012.1
20260508022904 43 250 0.0 0.0 0.00 0.00 0.00 71 1012.0
20260508022404 43 250 0.0 0.0 0.00 0.00 0.00 70 1012.0
20260508021904 44 250 0.0 0.0 0.00 0.00 0.00 69 1012.0
20260508021404 44 250 0.0 0.0 0.00 0.00 0.00 67 1011.9
20260508020905 44 250 0.0 0.0 0.00 0.00 0.00 67 1011.9
20260508020404 45 250 0.0 0.0 0.00 0.00 0.00 66 1012.0
20260508015904 45 250 0.0 0.0 0.00 0.00 0.00 67 1012.0
20260508015404 45 250 0.0 0.0 0.00 0.00 0.00 64 1012.0
20260508014405 46 250 0.0 0.0 0.00 0.00 0.00 59 1011.9
20260508013904 46 250 0.0 0.0 0.00 0.00 0.00 58 1011.8
20260508013404 47 250 0.0 0.0 0.00 0.00 0.00 58 1011.8
20260508012904 47 250 0.0 0.0 0.00 0.00 0.00 57 1011.8
20260508011904 48 250 0.0 0.0 0.00 0.00 0.00 56 1011.8
20260508011405 48 250 0.0 0.0 0.00 0.00 0.00 56 1011.7
20260508010904 49 250 0.0 0.0 0.00 0.00 0.00 52 1011.7
20260508005904 50 250 0.0 0.0 0.00 0.00 0.00 50 1011.7
20260508005405 50 250 0.0 0.0 0.00 0.00 0.00 48 1011.7
20260508004904 51 250 0.0 0.0 0.00 0.00 0.00 49 1011.7
20260508004404 51 250 0.0 0.0 0.00 0.00 0.00 48 1011.7
20260508003904 51 250 0.0 0.0 0.00 0.00 0.00 47 1011.7
20260508003404 51 250 0.0 0.9 0.00 0.00 0.00 46 1011.6
20260508002904 51 250 0.0 0.0 0.00 0.00 0.00 45 1011.5
20260508002405 51 245 0.0 0.0 0.00 0.00 0.00 45 1011.5
20260508001904 52 235 0.0 0.0 0.00 0.00 0.00 48 1011.3
20260508001404 52 236 0.0 2.6 0.00 0.00 0.00 45 1011.2
20260508000904 52 234 0.0 0.9 0.00 0.01 0.00 48 1011.2
20260508000405 52 236 0.0 0.0 0.00 0.01 0.00 45 1011.4
20260507235904 52 242 0.0 2.6 0.00 0.01 0.00 47 1011.3
20260507235404 53 250 0.0 0.0 0.00 0.01 0.00 46 1011.2
20260507234904 53 256 0.9 7.8 0.00 0.01 0.00 43 1011.2
20260507234404 53 350 0.0 4.3 0.00 0.01 0.00 46 1011.2
20260507233904 53 241 2.6 10.4 0.00 0.01 0.00 42 1011.3
20260507233405 54 271 1.7 18.2 0.00 0.01 0.00 42 1011.2
20260507232404 54 252 0.9 4.3 0.00 0.01 0.00 42 1011.0
20260507231904 55 250 1.7 5.2 0.00 0.01 0.00 43 1011.1
20260507231404 55 256 0.0 5.2 0.00 0.01 0.00 44 1011.0
20260507230904 55 255 2.6 7.0 0.00 0.01 0.00 44 1010.9
20260507230404 55 234 2.6 5.2 0.00 0.01 0.00 44 1011.2
20260507225404 55 259 3.5 13.9 0.00 0.01 0.00 45 1011.1
20260507224904 55 272 0.9 14.8 0.00 0.01 0.00 50 1011.1
20260507224405 55 291 1.7 14.8 0.00 0.01 0.00 48 1011.2
20260507223905 55 216 0.0 7.0 0.00 0.01 0.00 51 1011.1
20260507223404 55 263 2.6 10.4 0.00 0.01 0.00 52 1011.1
20260507222904 54 252 1.7 7.8 0.00 0.01 0.00 52 1011.2
20260507222404 54 250 2.6 10.4 0.00 0.01 0.00 51 1011.1
20260507221904 54 253 0.9 4.3 0.00 0.01 0.00 53 1011.0
20260507221404 54 235 1.7 13.9 0.00 0.01 0.00 52 1011.1
20260507220904 55 199 0.9 10.4 0.00 0.01 0.00 53 1011.0
20260507220405 55 179 0.9 7.0 0.00 0.01 0.00 53 1010.9
20260507215904 55 125 0.0 0.9 0.00 0.01 0.00 54 1010.8
20260507215404 55 48 0.0 2.6 0.00 0.01 0.00 52 1010.6
20260507214904 55 317 0.0 0.0 0.00 0.01 0.00 52 1010.7
20260507214404 55 319 0.0 7.0 0.00 0.01 0.00 52 1010.6
20260507213905 55 247 0.0 5.2 0.00 0.01 0.00 54 1010.6
20260507213404 55 269 2.6 14.8 0.00 0.01 0.00 50 1010.4
20260507212905 55 194 0.0 4.3 0.00 0.01 0.00 50 1010.2
20260507212404 56 267 0.0 2.6 0.00 0.01 0.00 48 1010.1
20260507211904 56 229 4.3 10.4 0.00 0.01 0.00 48 1010.1
20260507211404 56 255 0.0 0.0 0.00 0.01 0.00 50 1010.1
20260507210904 57 222 0.0 0.0 0.00 0.01 0.00 49 1009.9
20260507210404 57 128 0.0 2.6 0.00 0.01 0.00 49 1010.1
20260507205905 58 283 1.7 5.2 0.00 0.01 0.00 45 1009.9
20260507205404 57 244 0.0 10.4 0.00 0.01 0.00 49 1009.8
20260507204904 57 258 4.3 12.2 0.00 0.01 0.00 45 1009.7
20260507204404 57 259 0.9 7.8 0.00 0.01 0.00 49 1009.7
20260507203904 57 254 0.9 7.0 0.00 0.01 0.00 48 1009.7
20260507203404 57 251 2.6 7.8 0.00 0.01 0.00 44 1009.8
20260507202404 58 275 0.9 7.0 0.00 0.01 0.00 48 1009.8
20260507201904 59 256 0.9 5.2 0.00 0.01 0.00 43 1009.6
20260507201404 59 237 1.7 10.4 0.00 0.01 0.00 42 1009.6
20260507200904 60 286 0.0 7.0 0.00 0.01 0.00 45 1009.7
20260507200404 60 260 2.6 12.2 0.00 0.01 0.00 46 1009.8
20260507195904 60 257 5.2 13.9 0.00 0.01 0.00 44 1009.9
20260507195404 59 280 1.7 7.0 0.00 0.01 0.00 46 1010.0
20260507194905 58 295 0.9 7.0 0.00 0.01 0.00 50 1010.2
20260507194404 57 256 1.7 10.4 0.00 0.01 0.00 47 1010.3
20260507193904 57 271 3.5 13.9 0.00 0.01 0.00 49 1010.3
20260507193404 57 247 0.9 7.8 0.00 0.01 0.00 50 1010.3
20260507192904 57 258 4.3 14.8 0.00 0.01 0.00 48 1010.4
20260507192404 57 250 1.7 14.8 0.00 0.01 0.00 49 1010.3
20260507191904 57 278 4.3 10.4 0.00 0.01 0.00 46 1010.3
20260507191404 57 288 0.0 7.0 0.00 0.01 0.00 47 1010.3
20260507190904 57 243 2.6 7.0 0.00 0.01 0.00 47 1010.3
20260507190404 57 299 1.7 12.2 0.00 0.01 0.00 47 1010.2
20260507185904 57 228 0.0 5.2 0.00 0.01 0.00 50 1010.2
20260507185404 57 248 0.9 14.8 0.00 0.01 0.00 46 1010.2
20260507184904 58 273 5.2 12.2 0.00 0.01 0.00 44 1010.1
20260507184404 58 231 0.9 5.2 0.00 0.01 0.00 43 1010.0
20260507183904 58 265 0.0 4.3 0.00 0.01 0.00 45 1010.0
20260507183404 58 254 1.7 7.8 0.00 0.01 0.00 44 1010.1
20260507182907 59 214 0.0 0.9 0.00 0.01 0.00 42 1009.9
20260507181904 57 259 0.0 0.0 0.00 0.01 0.00 48 1010.0
20260507181404 57 259 0.0 5.2 0.00 0.01 0.00 44 1010.1
20260507180904 57 252 0.0 0.0 0.00 0.01 0.00 47 1010.1
20260507180404 58 252 0.0 0.0 0.00 0.01 0.00 45 1010.0
20260507175904 58 252 0.0 4.3 0.00 0.01 0.00 44 1010.1
20260507175404 58 256 1.7 12.2 0.00 0.01 0.00 43 1010.0
20260507174904 57 293 2.6 10.4 0.00 0.01 0.00 43 1010.1
20260507174404 57 252 2.6 5.2 0.00 0.01 0.00 43 1010.1
20260507173903 57 247 0.0 4.3 0.00 0.01 0.00 42 1010.2
20260507172904 58 247 1.7 7.0 0.00 0.01 0.00 43 1010.2
20260507172404 58 259 0.0 7.0 0.00 0.01 0.00 41 1010.3
20260507171904 59 263 2.6 10.4 0.00 0.01 0.00 39 1010.3
20260507171404 61 272 0.9 7.0 0.00 0.01 0.00 42 1010.2
20260507170404 60 257 3.5 12.2 0.00 0.01 0.00 42 1010.3
20260507165904 59 206 0.9 5.2 0.00 0.01 0.00 50 1010.3
20260507165404 57 5 0.0 0.9 0.00 0.01 0.00 47 1010.5
20260507164904 57 262 2.6 7.0 0.00 0.01 0.00 46 1010.5
20260507164404 57 252 0.9 7.0 0.00 0.01 0.00 44 1010.6
20260507163904 58 238 5.2 12.2 0.00 0.01 0.00 45 1010.5
20260507162404 57 269 2.6 12.2 0.00 0.01 0.00 46 1010.6
20260507161904 58 245 0.9 4.3 0.00 0.01 0.00 44 1010.5
20260507161404 58 220 0.9 4.3 0.00 0.01 0.00 48 1010.5
20260507160904 57 240 2.6 5.2 0.00 0.01 0.00 51 1010.7
20260507160404 57 253 6.1 10.4 0.00 0.01 0.00 49 1010.8
20260507155404 56 246 4.3 12.2 0.00 0.01 0.00 47 1010.9
20260507154904 55 272 3.5 7.8 0.00 0.01 0.00 54 1011.0
20260507154404 55 250 0.9 7.8 0.00 0.01 0.00 52 1011.0
20260507153904 56 264 2.6 7.0 0.00 0.01 0.00 48 1011.0
20260507153404 55 265 2.6 12.2 0.00 0.01 0.00 50 1011.1
20260507152904 56 275 7.8 12.2 0.00 0.01 0.00 50 1011.0
20260507152404 55 261 0.0 4.3 0.00 0.01 0.00 55 1011.0
20260507151904 54 261 0.0 2.6 0.00 0.01 0.00 52 1011.1
20260507150404 56 266 6.1 11.3 0.00 0.01 0.00 51 1011.0
20260507145904 55 254 1.7 5.2 0.00 0.01 0.00 54 1011.0
20260507145404 55 218 2.6 7.8 0.00 0.01 0.00 53 1011.0
20260507144904 56 189 2.6 5.2 0.00 0.01 0.00 55 1011.0
20260507144404 56 248 1.7 7.0 0.00 0.01 0.00 55 1011.0
20260507143904 56 273 2.6 7.0 0.00 0.01 0.00 55 1011.0
20260507143404 55 271 1.7 7.8 0.00 0.01 0.00 58 1011.0
20260507142904 55 274 6.1 10.4 0.00 0.01 0.00 59 1011.0
20260507142404 54 157 4.3 7.8 0.00 0.01 0.00 62 1011.0
20260507141904 54 218 0.9 5.2 0.00 0.01 0.00 60 1011.2
20260507141404 54 213 1.7 7.8 0.00 0.01 0.00 64 1011.3
20260507140905 53 166 4.3 7.8 0.00 0.01 0.00 63 1011.3
20260507140404 53 213 2.6 5.2 0.00 0.01 0.00 66 1011.4
20260507135904 52 201 2.6 7.0 0.00 0.01 0.00 64 1011.5
20260507135404 52 223 2.6 5.2 0.00 0.01 0.00 66 1011.6
20260507134904 52 190 0.0 2.6 0.00 0.01 0.00 66 1011.6
20260507134404 52 191 2.6 4.3 0.00 0.01 0.00 67 1011.6
20260507133904 52 156 3.5 7.0 0.00 0.01 0.00 69 1011.7
20260507133404 51 221 0.0 2.6 0.00 0.01 0.00 66 1011.8
20260507132904 51 200 0.0 4.3 0.00 0.01 0.00 67 1011.8
20260507132404 51 195 0.9 4.3 0.00 0.01 0.00 68 1011.9
20260507131404 50 240 0.0 5.2 0.00 0.01 0.00 71 1011.9
20260507130904 50 251 1.7 4.3 0.00 0.01 0.00 69 1011.9
20260507130404 49 237 2.6 4.3 0.00 0.01 0.00 71 1011.9
20260507125904 49 219 0.9 2.6 0.00 0.01 0.00 74 1011.8
20260507125404 48 263 0.0 2.6 0.00 0.01 0.00 76 1012.0
20260507124903 48 267 0.0 2.6 0.00 0.01 0.00 76 1012.0
20260507124404 47 267 0.0 4.3 0.00 0.01 0.00 77 1012.0
20260507123904 46 268 4.3 5.2 0.00 0.01 0.00 77 1012.0
20260507123404 46 256 0.9 4.3 0.00 0.01 0.00 80 1012.0
20260507122904 45 229 1.7 5.2 0.00 0.01 0.00 80 1011.9
20260507122404 44 184 0.9 2.6 0.00 0.01 0.00 82 1012.0
20260507121404 43 164 0.9 4.3 0.00 0.01 0.00 85 1012.1
20260507120404 42 143 0.0 0.0 0.00 0.01 0.00 90 1012.2
20260507115904 41 139 0.0 0.9 0.00 0.01 0.00 91 1012.2
20260507115404 40 134 0.0 0.0 0.00 0.01 0.00 92 1012.3
20260507114404 40 133 0.0 0.0 0.00 0.01 0.00 92 1012.3
20260507113904 39 133 0.0 0.0 0.00 0.01 0.00 92 1012.3
20260507113404 39 133 0.0 0.0 0.00 0.01 0.00 92 1012.3
20260507112903 39 133 0.0 0.0 0.00 0.01 0.00 92 1012.2
20260507112404 39 133 0.0 0.0 0.00 0.01 0.00 92 1012.3
20260507111904 39 133 0.0 0.0 0.00 0.01 0.00 92 1012.3
20260507111404 39 133 0.0 0.0 0.00 0.01 0.00 93 1012.1
20260507110904 39 133 0.0 0.0 0.00 0.01 0.00 93 1012.1
20260507110405 38 133 0.0 0.0 0.00 0.01 0.00 92 1012.2
20260507105904 38 133 0.0 0.0 0.00 0.01 0.00 93 1012.0
20260507105404 38 133 0.0 0.0 0.00 0.01 0.00 92 1012.0
20260507104404 38 133 0.0 0.0 0.00 0.01 0.00 93 1011.9
20260507103903 38 133 0.0 0.0 0.00 0.01 0.00 92 1011.8
20260507103404 38 133 0.0 0.0 0.00 0.01 0.00 92 1011.9
20260507102904 38 133 0.0 0.0 0.00 0.01 0.00 92 1011.9
20260507101904 38 133 0.0 0.0 0.00 0.02 0.00 92 1011.9
20260507101404 38 133 0.0 0.0 0.00 0.02 0.00 92 1011.8
20260507100904 38 133 0.0 0.0 0.00 0.03 0.00 92 1011.7
20260507100404 38 133 0.0 0.0 0.00 0.03 0.00 92 1011.6
20260507095904 38 133 0.0 0.0 0.00 0.04 0.00 92 1011.6
20260507094903 38 133 0.0 0.0 0.00 0.05 0.00 92 1011.6
20260507094404 38 133 0.0 0.0 0.00 0.06 0.00 93 1011.6
20260507093904 38 133 0.0 0.0 0.00 0.07 0.00 93 1011.6
20260507093403 38 133 0.0 0.0 0.00 0.08 0.00 93 1011.7
20260507092904 38 133 0.0 0.0 0.00 0.08 0.00 92 1011.7
20260507092404 37 133 0.0 0.0 0.00 0.08 0.00 92 1011.7
20260507091404 37 133 0.0 0.0 0.00 0.09 0.00 92 1011.9
20260507090904 37 133 0.0 0.0 0.00 0.09 0.00 92 1011.9
20260507085904 37 133 0.0 0.0 0.00 0.09 0.00 92 1011.8
20260507085404 37 133 0.0 0.0 0.00 0.10 0.00 91 1011.7
20260507084904 37 133 0.0 0.0 0.00 0.10 0.00 91 1011.7
20260507084404 37 133 0.0 0.0 0.00 0.11 0.00 91 1011.8
20260507083904 38 133 0.0 0.0 0.00 0.12 0.00 91 1011.7
20260507083404 38 133 0.0 0.0 0.00 0.13 0.00 91 1011.7
20260507082905 38 133 0.0 0.0 0.00 0.14 0.00 91 1011.8
20260507082405 38 133 0.0 0.0 0.00 0.16 0.00 91 1011.8
20260507081904 38 133 0.0 0.0 0.00 0.18 0.00 91 1011.9
20260507081404 38 133 0.0 0.0 0.00 0.19 0.00 91 1012.0
20260507080904 38 133 0.0 0.0 0.00 0.21 0.00 91 1012.0
20260507080404 38 133 0.0 0.0 0.00 0.22 0.00 91 1011.9
20260507075904 38 133 0.0 0.0 0.00 0.23 0.00 91 1012.0
20260507075403 38 133 0.0 0.0 0.00 0.25 0.00 91 1011.9
20260507074904 38 133 0.0 0.0 0.00 0.26 0.00 91 1012.0
20260507074404 38 133 0.0 0.0 0.00 0.27 0.00 90 1012.0
20260507073904 39 133 0.0 0.0 0.00 0.28 0.00 90 1012.0
20260507073404 39 133 0.0 0.0 0.00 0.30 0.00 90 1012.0
20260507072403 39 133 0.0 0.0 0.00 0.31 0.00 90 1012.0
20260507071903 39 133 0.0 0.0 0.00 0.32 0.00 90 1011.9
20260507071404 39 133 0.0 0.0 0.00 0.33 0.00 89 1012.0
20260507070904 39 133 0.0 0.0 0.00 0.34 0.00 89 1012.0
20260507070404 39 133 0.0 0.0 0.00 0.35 0.00 89 1012.0
20260507065904 39 133 0.0 0.0 0.00 0.35 0.00 89 1011.9
20260507065403 40 133 0.0 0.0 0.00 0.36 0.00 89 1012.0
20260507064403 40 133 0.0 0.0 0.00 0.38 0.00 88 1012.1
20260507063903 40 133 0.0 0.0 0.00 0.38 0.00 88 1012.2
20260507063403 40 133 0.0 0.0 0.00 0.39 0.00 87 1012.2
20260507062903 41 133 0.0 0.0 0.00 0.40 0.00 87 1012.2
20260507061904 41 133 0.0 0.0 0.00 0.41 0.00 86 1012.4
20260507061404 41 133 0.0 0.0 0.00 0.42 0.00 86 1012.5
20260507060903 42 133 0.0 0.0 0.00 0.43 0.00 85 1012.4
20260507060404 42 133 0.0 0.0 0.00 0.43 0.00 85 1012.4
20260507055405 42 133 0.0 0.0 0.00 0.45 0.00 85 1012.4
20260507053403 43 133 0.0 0.0 0.00 0.46 0.00 83 1012.5
20260507052905 43 133 0.0 0.0 0.00 0.47 0.00 83 1012.5
20260507052405 43 133 0.0 0.0 0.00 0.47 0.00 83 1012.5
20260507051905 43 133 0.0 0.0 0.00 0.48 0.00 83 1012.5
20260507051405 43 133 0.0 0.0 0.00 0.48 0.00 82 1012.4
20260507050905 43 133 0.0 0.0 0.00 0.49 0.00 83 1012.5
20260507050405 43 133 0.0 0.0 0.00 0.49 0.00 82 1012.6
20260507045905 43 133 0.0 0.0 0.00 0.50 0.00 82 1012.6
20260507045405 43 133 0.0 0.0 0.00 0.50 0.00 81 1012.6
20260507044905 44 133 0.0 0.0 0.00 0.51 0.00 81 1012.7
20260507044405 44 133 0.0 0.0 0.00 0.51 0.00 81 1012.8
20260507042904 44 133 0.0 0.0 0.00 0.53 0.00 78 1012.9
20260507042405 44 133 0.0 0.0 0.00 0.54 0.00 78 1013.0
20260507041905 44 133 0.0 0.0 0.00 0.54 0.00 78 1013.1
20260507041405 44 133 0.0 0.0 0.00 0.55 0.00 77 1013.1
20260507040905 44 133 0.0 0.0 0.00 0.56 0.00 77 1013.1
20260507040405 44 133 0.0 0.0 0.00 0.57 0.00 75 1013.2